Location: Gillaus
(48.4667°N, 15.3667°E)
Time: 22:37:07
(UTC+00:00)

Daily predictions for brighter satellites

Satellite Brightness Start Highest point End
(mag) Time Altitude Azimuth Time Altitude Azimuth Time Altitude Azimuth
ASTEX 1 3.8 16:25:39 10° NNE 16:30:20 40° E 16:35:01 10° SSE
Unknown 4.2 16:26:48 10° W 16:30:50 49° NNW 16:34:52 10° ENE
Cosmos 1844 Rocket 3.1 16:25:32 10° SW 16:31:09 67° WNW 16:36:47 10° NNE
Unknown 4.2 16:27:52 10° W 16:31:54 48° N 16:35:56 10° ENE
Unknown 4.3 16:28:37 10° W 16:32:39 47° N 16:36:40 10° ENE
Unknown 4.3 16:30:07 10° W 16:34:05 46° N 16:38:03 10° ENE
Unknown 4.3 16:30:21 10° W 16:34:21 47° N 16:38:24 10° ENE
Cosmos 1242 Rocket 2.5 16:30:50 10° N 16:34:32 72° ENE 16:38:11 10° SSE
NOAA 12 4.1 16:30:12 10° SSE 16:35:29 74° ENE 16:40:48 10° N
Unknown 4.3 16:33:28 10° W 16:37:30 48° N 16:41:31 10° ENE
COSMOS 2406 3.4 16:32:04 10° NNW 16:37:52 84° WSW 16:43:37 10° SSE
Unknown 4.3 16:36:48 10° W 16:40:49 47° N 16:44:51 10° ENE
Cosmos 1461 2.9 16:37:55 10° NNW 16:41:57 60° NE 16:46:07 10° SE
Cosmos 1703 3.3 16:38:05 10° N 16:42:00 60° ENE 16:45:51 10° SSE
Cosmos 2058 Rocket 3.0 16:38:06 10° S 16:42:24 63° E 16:46:44 10° NNE
Unknown 4.3 16:38:28 10° W 16:42:30 47° N 16:46:29 10° ENE
Unknown 3.1 16:39:07 10° WNW 16:42:32 73° NNE 16:45:57 10° ESE
Lacrosse 5 1.9 16:37:34 10° NW 16:42:37 64° NNE 16:47:38 10° ESE
Unknown 4.3 16:40:07 10° W 16:44:08 46° N 16:48:03 11° ENE
ATLAS 3B R/B 4.2 16:42:13 10° SE 16:45:07 13° ESE 16:47:45 11° E
Unknown 4.2 16:42:44 10° WNW 16:45:39 39° SW 16:48:37 10° SE
Unknown 4.3 16:41:48 10° W 16:45:49 46° N 16:49:39 11° ENE
SJ 16-02 3.2 16:45:17 10° NNE 16:47:12 13° NE 16:48:44 11° ENE
CZ-4 R/B 1.6 16:46:00 10° SSE 16:50:05 53° ENE 16:54:13 10° N
ATLAS CENTAUR R/B 3.9 16:49:23 10° N 16:50:52 11° N 16:52:20 10° NNE
ATLAS 5 CENTAUR R/B 3.2 16:46:59 10° W 16:50:58 31° NNW 16:55:28 10° NNE
FALCON 9 DEB 3.1 16:48:01 10° WNW 16:51:31 73° NNE 16:54:38 12° ESE
Unknown 4.3 16:48:30 10° W 16:52:30 45° N 16:56:03 13° ENE
CENTAUR R/B 3.9 16:49:51 10° SE 16:53:02 15° ESE 16:55:19 12° E
Unknown 4.3 16:50:13 10° W 16:54:13 45° N 16:57:41 13° ENE
COSMO-SKYMED 1 2.7 16:51:10 10° NNE 16:55:26 51° E 16:59:39 10° S
Cosmos 2084 Rocket 3.9 16:51:27 10° NNW 16:55:43 44° NE 16:59:31 12° ESE
Unknown 4.3 16:51:50 10° W 16:55:50 45° N 16:59:14 14° ENE
Gbstr 26 Del rocket 4.1 16:51:24 10° WNW 16:57:13 80° SSW 17:04:24 10° ESE
Unknown 4.3 16:53:31 10° W 16:57:31 44° N 17:00:50 14° ENE
Unknown 4.3 16:55:11 10° WNW 16:59:10 44° N 17:02:25 15° ENE
Meteor 1-16 Rocket 4.2 16:54:02 10° SSW 16:59:33 83° W 17:04:57 10° N
Envisat 3.0 16:54:52 10° SSE 16:59:57 89° WSW 17:05:05 10° NNW
Cosmos 1726 2.1 16:58:01 10° S 17:01:40 82° W 17:05:20 10° N
Cosmos 1908 3.2 16:58:21 10° S 17:02:12 65° E 17:06:05 10° NNE
Unknown 4.3 16:58:31 10° WNW 17:02:31 44° N 17:05:37 16° ENE
Cosmos 2278 Rocket 2.2 16:57:23 10° S 17:02:57 61° ESE 17:08:35 10° NNE
Unknown 3.8 16:59:19 10° WNW 17:02:58 48° NNE 17:05:26 18° E
EO 1 Delta rocket 4.0 16:58:54 10° SSE 17:03:24 54° ENE 17:08:27 10° N
H-2A R/B 3.7 17:02:20 14° ENE 17:03:44 15° NE 17:06:42 10° NNE
Okean-O 3.6 16:59:43 10° S 17:04:02 52° W 17:08:24 10° NNW
Starlink (trailer) 4.3 17:00:11 10° WNW 17:04:11 44° N 17:07:12 16° ENE
Unknown 4.3 17:01:54 10° WNW 17:05:53 44° N 17:08:50 17° ENE
Falcon 9 debris 3.1 17:02:51 10° WNW 17:06:19 86° SSW 17:08:54 17° ESE
Cosmos 1898 Rocket 4.4 17:01:48 10° N 17:06:23 29° NE 17:09:43 16° ESE
Unknown 3.1 17:03:09 10° WNW 17:06:41 79° NNE 17:09:07 19° ESE
BREEZE-M DEB (TANK) 3.5 17:02:37 10° SW 17:07:00 32° SSE 17:08:19 20° ESE
Unknown 4.3 17:03:34 10° WNW 17:07:33 44° N 17:10:26 17° ENE
Meteor 1-11 4.3 17:02:37 10° NNW 17:08:26 88° W 17:14:15 10° S
FengYun 1-2 T 4.2 17:03:07 10° SSE 17:08:46 87° ENE 17:14:24 10° NNW
Cosmos 1605 Rocket 3.9 17:03:29 10° N 17:09:43 81° E 17:15:49 10° S
Cosmos 1356 4.0 17:06:37 10° SSW 17:10:01 61° WNW 17:13:27 10° N
Unknown 4.3 17:08:18 10° WNW 17:12:16 43° N 17:14:55 19° ENE
Cosmos 1934 Rocket 4.5 17:06:19 10° NNW 17:12:37 67° W 17:18:55 10° S
Unknown 4.3 17:10:14 10° WNW 17:14:13 43° N 17:16:48 20° ENE
CSL-04 Rocket 3.6 17:09:36 10° SSE 17:15:07 78° ENE 17:20:37 10° NNW
Unknown 4.4 17:12:05 10° WNW 17:16:05 43° N 17:18:36 20° ENE
Unknown 4.4 17:13:33 10° WNW 17:17:34 44° N 17:20:02 21° ENE
USA 238 DEB 3.8 17:11:33 10° SSW 17:18:01 54° ESE 17:24:44 10° NE
USA 238 3.8 17:11:40 10° SSW 17:18:07 54° ESE 17:24:49 10° NE
Unknown 4.3 17:15:17 10° WNW 17:19:15 43° N 17:21:36 21° ENE
COBE Rocket 4.2 17:14:20 10° N 17:19:29 74° WNW 17:24:31 10° SSW
Unknown 4.3 17:17:04 10° WNW 17:21:03 43° N 17:23:18 22° ENE
Meteor 2-10 4.3 17:16:07 10° SSW 17:21:09 68° WNW 17:26:11 10° N
Cosmos 1076 Rocket 3.7 17:18:41 10° N 17:22:58 50° ENE 17:27:11 10° SSE
Cosmos 1727 Rocket 4.0 17:17:28 10° S 17:23:31 60° E 17:29:34 10° NNE
Unknown 4.3 17:20:24 10° WNW 17:24:23 43° N 17:26:30 24° ENE
ARGOS 4.5 17:23:41 19° ENE 17:24:24 20° ENE 17:28:13 10° NNE
Unknown 4.3 17:20:28 10° WNW 17:24:27 43° N 17:26:34 24° ENE
Unknown 4.3 17:21:56 10° WNW 17:25:55 43° N 17:27:58 24° ENE
Cosmos 2173 Rocket 4.2 17:21:14 10° N 17:27:14 45° ENE 17:33:06 10° SE
Unknown 3.3 17:24:52 10° WNW 17:28:22 71° SSW 17:30:03 28° SE
Unknown 4.3 17:25:11 10° WNW 17:29:10 43° N 17:31:05 26° ENE
Cosmos 44 4.0 17:26:05 10° S 17:30:22 30° ESE 17:31:18 28° E
YAOGAN 6 3.3 17:27:34 10° S 17:31:09 55° W 17:34:44 10° NNW
NOAA 11 4.1 17:27:13 10° SSE 17:32:36 67° ENE 17:38:00 10° N
Unknown 4.3 17:28:37 10° WNW 17:32:37 44° N 17:34:22 27° ENE
Cosmos 1892 4.4 17:30:14 10° NNE 17:31:54 18° NE 17:31:54 18° NE
Cosmos 2058 3.1 17:29:59 10° N 17:34:06 47° ENE 17:36:43 20° SE
Unknown 4.3 17:30:19 10° WNW 17:34:18 44° N 17:35:58 28° NE
Cosmos 1833 Rocket 3.1 17:28:49 10° NNW 17:34:23 64° WSW 17:39:55 10° SSE
Cosmos 1812 Rocket 3.5 17:30:37 10° S 17:35:00 68° E 17:39:28 10° NNE
Cosmos 1802 Rocket 4.3 17:29:30 10° N 17:35:40 45° ENE 17:41:37 11° SE
Unknown 4.3 17:31:59 10° WNW 17:35:58 44° N 17:37:34 29° NE
Unknown 3.7 17:32:19 10° WNW 17:36:06 53° NNE 17:37:14 37° ENE
Unknown 4.3 17:33:40 10° WNW 17:37:40 44° N 17:39:11 30° NE
Unknown 4.3 17:37:01 10° WNW 17:41:01 44° N 17:42:23 32° NE
NOSS 3-2 (A) 3.4 17:35:27 10° SSW 17:41:08 62° ESE 17:46:23 16° NE
MOS 1 4.5 17:38:09 18° SE 17:42:06 48° ENE 17:47:31 10° N
Ariane Rocket 2.9 17:37:32 10° SSE 17:42:35 67° ENE 17:47:40 10° N
Unknown 4.3 17:38:44 10° WNW 17:42:44 44° N 17:44:02 33° NE
SKYMED 2 4.4 17:39:15 10° N 17:43:30 53° WNW 17:47:43 10° SSW
Unknown 4.3 17:40:20 10° WNW 17:44:19 44° N 17:45:33 34° NE
Cosmos 2151 3.9 17:40:51 10° N 17:44:07 31° NE 17:44:07 31° NE
YAOGAN 1 3.3 17:41:06 10° S 17:45:20 55° W 17:49:37 10° NNW
Unknown 4.3 17:41:56 10° WNW 17:45:56 44° N 17:47:06 35° NE
Cosmos 468 Rocket 4.5 17:42:48 10° SSE 17:47:35 36° ESE 17:48:02 35° E
Unknown 4.2 17:43:43 10° WNW 17:47:43 45° N 17:48:48 36° NE
Unknown 4.3 17:45:08 10° WNW 17:49:08 44° N 17:50:10 36° NE
Cosmos 1725 Rocket 4.5 17:43:48 10° N 17:49:39 38° ENE 17:51:25 32° ESE
Unknown 4.2 17:48:28 10° WNW 17:52:29 45° N 17:53:22 38° NE
IRS-1A Rocket 4.1 17:47:09 10° SSE 17:52:37 73° ENE 17:58:09 10° NNW
Cosmos 1300 2.5 17:49:49 10° S 17:53:38 84° E 17:57:28 10° N
Cosmos 1939 Rocket 2.9 17:50:02 10° S 17:54:01 82° WSW 17:58:08 10° NNW
Unknown 4.2 17:50:09 10° WNW 17:54:09 45° N 17:54:58 39° NE
HJ-1C 3.5 17:54:54 61° NNE 17:54:54 61° NNE 17:57:51 10° N
Cosmos 2100 Rocket 3.8 17:48:33 10° N 17:54:46 75° E 18:00:54 10° SSE
Unknown 4.1 17:52:02 10° WNW 17:56:03 46° N 17:56:46 41° NE
CZ-2C R/B 4.4 17:57:05 26° NE 17:57:05 26° NE 18:01:16 10° N
CZ-2D R/B 3.6 17:53:25 10° S 17:57:15 66° WSW 18:01:08 10° NNW
Unknown 4.2 17:53:30 10° WNW 17:57:30 45° N 17:58:10 41° NE
Unknown 3.5 17:53:48 10° WNW 17:57:40 59° NNE 17:57:58 57° NE
Abrixas rocket 2.4 17:54:58 10° W 17:57:37 62° WSW 17:57:37 62° WSW
Cosmos 1937 Rocket 3.6 17:53:22 10° NNW 17:58:23 50° ENE 17:59:13 45° E
Cosmos 990 Rocket 3.9 17:53:45 10° NNW 17:58:57 64° ENE 18:00:40 40° SE
Unknown 4.1 17:55:07 10° WNW 17:59:08 46° N 17:59:43 42° NNE
Unknown 4.1 17:58:30 10° WNW 18:02:32 46° N 18:02:58 44° NNE
Unknown 4.1 18:00:08 10° WNW 18:04:10 47° N 18:04:32 45° NNE
ADEOS Rocket 3.8 17:57:17 10° NNE 18:04:21 39° E 18:10:53 10° SSE
Cosmos 2082 Rocket 2.9 17:59:40 10° NW 18:05:14 54° WSW 18:10:44 10° S
Unknown 4.1 18:01:50 10° WNW 18:05:51 47° N 18:06:09 46° NNE
NOSS 3-2 (C) 3.4 18:01:11 10° SSW 18:06:53 61° ESE 18:09:34 34° ENE
Unknown 3.9 18:03:22 10° WNW 18:07:20 52° NNE 18:07:24 52° NNE
Unknown 4.1 18:03:28 10° WNW 18:07:30 47° N 18:07:43 47° NNE
Unknown 4.1 18:06:53 10° WNW 18:10:55 48° N 18:10:59 48° NNE
Unknown 4.1 18:07:56 10° WNW 18:11:58 49° N 18:11:59 49° N
Cosmos 2016 Rocket 3.9 18:05:51 10° N 18:12:08 67° ENE 18:15:25 30° SSE
Unknown 4.1 18:08:40 10° WNW 18:12:41 50° N 18:12:41 50° N
Unknown 4.1 18:09:58 10° WNW 18:13:50 50° N 18:13:50 50° N
Unknown 4.1 18:10:23 10° WNW 18:14:20 50° N 18:14:20 50° N
Unknown 4.2 18:13:31 10° WNW 18:17:21 49° N 18:17:21 49° N
SL-08 R/B 4.3 18:14:12 10° N 18:20:18 64° ENE 18:21:39 51° SE
Unknown 4.2 18:16:51 10° WNW 18:20:32 49° N 18:20:32 49° N
Unknown 4.2 18:18:30 10° WNW 18:22:08 48° N 18:22:08 48° N
Unknown 4.3 18:20:09 10° WNW 18:23:42 48° NNW 18:23:42 48° NNW
Meteor 2-1 Rocket 4.1 18:19:10 10° SSW 18:24:41 85° WNW 18:30:19 10° N
Lacrosse 5 3.2 18:20:51 10° WNW 18:25:22 33° SW 18:27:30 24° S
CZ-4 R/B 4.4 18:22:35 10° SW 18:25:24 17° W 18:28:16 10° NW
Unknown 4.3 18:21:50 10° WNW 18:25:18 47° NNW 18:25:18 47° NNW
SPOT 3 Rocket 3.5 18:26:38 65° NE 18:26:38 65° NE 18:31:34 10° N
SJ 16-02 1.6 18:22:09 10° NNW 18:25:44 58° N 18:25:44 58° N
In-Cosmos 22 Rocket 4.4 18:23:15 10° NNW 18:28:38 67° W 18:32:45 18° S
ATLAS CENTAUR R/B 3.4 18:27:48 10° NNW 18:30:12 21° N 18:30:12 21° N
ATLAS 3B R/B 2.5 18:27:56 10° SSW 18:34:34 65° ESE 18:35:04 63° E
ATLAS 5 CENTAUR R/B 4.2 18:34:12 10° NW 18:37:16 16° N 18:39:02 14° NNE
CENTAUR R/B 2.4 18:36:16 10° SSW 18:42:15 74° SE 18:42:36 72° E
H-2A R/B 2.2 18:42:58 66° NNE 18:42:58 66° NNE 18:47:44 10° NNW
Cosmos 2061 Rocket 4.2 18:39:48 10° NNW 18:46:02 70° W 18:49:21 29° S
Cosmos 2278 Rocket 4.0 18:42:35 10° WSW 18:47:28 29° NW 18:52:22 10° NNE
Cosmos 1898 Rocket 4.3 18:43:37 10° NNW 18:48:42 49° WSW 18:50:02 40° SSW
Cosmos 2297 4.0 18:45:09 10° SW 18:50:49 65° WNW 18:53:21 34° NNE
Resurs 01 Rocket 4.1 19:06:07 15° N 19:06:07 15° N 19:06:56 10° N
ARGOS 3.6 19:05:13 56° NNW 19:05:13 56° NNW 19:09:32 10° NNW
CZ-2C R/B 4.5 19:38:10 39° NW 19:38:10 39° NW 19:41:47 10° NNW
ADEOS Rocket 4.0 19:42:36 10° N 19:50:01 54° WNW 19:54:18 25° SW
ATLAS 3B R/B 4.4 20:19:24 10° WSW 20:22:24 25° W 20:22:24 25° W
